Погода в Маборе

Индия     15°15′25″N   74°06′39″E
В апреле 2022 года жителям России запретили посещать сайт meteo.paraplan.net по решению Генеральной прокуратуры. Аудитория сайта уменьшилась в 10 раз. Владельцы сайта не видят смысла в поддержке погодного сервера в таких условиях. Сайт будет закрыт в октябре.
темп.,
°C
ветер,
м/с
пор.,
м/с
влажн.,
%
обл.,
%
осадки,
мм/ч
давл.,
гПа
погр.,
м
3 октября, пн
пн323:30+24ссв129578 0.5 101076
02:30+23ссв1196100 0.1 100968
05:30+23ссв129561 0.2 1008116
08:30+26с268537 0.1 1011503
11:30+29сз457090 0.2 10101145
14:30+27сз578027 0.7 1008647
17:30+26сз488729 2.6 1008573
20:30+25ссз38915 0.0 1010395
4 октября, вт
вт423:30+24ссз269319 0.0 1010261
02:30+23ссз239544 0.0 1008141
05:30+22св129699 0.0 100874
08:30+25с2487100 0.0 1011333
11:30+29ссз3469100 0.0 1009823
14:30+30сз556799 0.0 1006998
17:30+27сз5987100 0.1 1007458
20:30+25ссз2691100 0.1 1009319
5 октября, ср
ср523:30+25ссз2592100 0.1 1009300
02:30+24ссз1396100 0.4 100791
05:30+24ссз239599 1.7 100884
08:30+26ссз258393 0.3 1010351
11:30+30сз346429 0.4 1009953
14:30+30зсз5669100 0.9 1006931
17:30+26сз4886100 2.1 1006399
20:30+25сз2591100 0.6 1008188
6 октября, чт
чт623:30+24сз1394100 2.3 100993
02:30+24сз139573 2.8 1007111
05:30+24с1296100 4.6 100787
08:30+26ссз258624 4.1 1009401
11:30+29зсз3469100 5.2 10081005
14:30+29зсз4568100 0.1 1006962
17:30+26зсз258395 0.4 1006209
20:30+25зсз12885 0.6 100859
7 октября, пт
пт723:30+24юв019096 0.8 100932
02:30+23в1192100 0.0 100668
05:30+23в119453 0.0 100726
08:30+26в1183100 0.0 1009253
11:30+29з226641 0.0 10081181
14:30+28з337138 0.4 1005775
17:30+27зсз3580100 0.6 1006294
20:30+25сз1286100 0.3 100969